Temperature
10 10 10 10 10 10 10 10 10 9 9 8 8 7 7 7 6 6 5 5 4 3 3 2 2 1 0 -1 -1 -2 -3 -5 -6 -5 -5 -6 -6 -6 -6 -6 -7 -7 -7
9 9 9 9 9 10 9 9 8 8 7 7 7 7 6 6 5 5 4 4 3 2 2 1 1 -0 -1 -2 -3 -4 -5 -5 -6 -7 -7 -7 -7 -7 -7 -7 -7 -7 -7
8 8 8 8 9 9 9 8 7 7 7 6 6 6 5 5 4 4 3 3 2 2 1 0 -0 -1 -2 -3 -4 -5 -6 -6 -7 -8 -8 -8 -8 -8 -8 -8 -8 -8 -8
7 7 7 7 7 8 7 6 6 6 6 6 5 5 5 4 4 3 3 2 1 1 0 -1 -1 -2 -3 -4 -5 -6 -7 -7 -8 -8 -8 -8 -8 -8 -8 -8 -8 -8 -8
6 6 6 6 6 6 5 5 5 5 5 5 5 4 4 3 3 2 2 1 1 0 -0 -1 -2 -3 -4 -5 -6 -7 -7 -8 -8 -8 -8 -8 -8 -8 -8 -8 -9 -9 -8
4 4 4 4 4 4 5 5 5 5 4 4 4 3 3 2 2 1 1 0 -0 -1 -1 -2 -3 -4 -5 -6 -7 -7 -8 -8 -8 -8 -8 -8 -8 -9 -9 -9 -9 -9 -9
2 2 2 3 4 4 4 4 4 4 4 3 3 2 2 1 1 0 -0 -1 -1 -2 -2 -4 -5 -5 -6 -7 -8 -8 -8 -9 -9 -9 -9 -9 -9 -9 -9 -9 -9 -9 -9
1 1 2 3 3 4 4 4 3 3 3 2 2 1 1 0 0 -0 -1 -2 -2 -3 -4 -5 -6 -7 -7 -8 -8 -8 -8 -8 -9 -9 -9 -9 -9 -9 -9 -9 -9 -9 -9
-0 1 2 3 3 3 3 3 2 2 2 1 1 0 -0 -1 -1 -2 -2 -3 -3 -4 -5 -6 -7 -8 -8 -8 -8 -8 -9 -8 -9 -9 -9 -9 -9 -9 -9 -9 -9 -10 -10
0 1 2 3 3 3 2 2 2 1 1 0 -0 -0 -1 -2 -2 -3 -4 -4 -5 -6 -6 -7 -7 -8 -8 -8 -9 -9 -9 -9 -9 -9 -8 -8 -8 -8 -8 -9 -9 -10 -10
1 1 2 2 2 2 2 1 1 0 0 -0 -1 -1 -2 -3 -4 -4 -6 -7 -7 -8 -8 -8 -8 -9 -9 -9 -9 -9 -9 -9 -9 -9 -9 -8 -8 -8 -8 -8 -9 -10 -10
1 2 2 2 1 1 1 0 0 -0 -1 -1 -2 -3 -3 -4 -5 -6 -7 -8 -8 -9 -9 -9 -9 -9 -9 -9 -9 -9 -9 -9 -9 -9 -9 -9 -8 -8 -8 -8 -8 -8 -9
2 2 1 1 1 0 0 -0 -1 -1 -1 -2 -3 -4 -4 -5 -6 -7 -7 -8 -8 -9 -9 -9 -9 -9 -9 -9 -9 -10 -10 -9 -9 -9 -9 -9 -8 -8 -8 -8 -7 -8 -8
2 1 1 0 0 -0 -1 -1 -1 -2 -2 -3 -4 -4 -5 -6 -7 -7 -8 -8 -8 -9 -9 -9 -9 -9 -9 -10 -9 -9 -9 -9 -10 -10 -9 -8 -8 -8 -8 -8 -8 -8 -8
1 1 0 -0 -0 -1 -1 -2 -2 -3 -4 -4 -5 -6 -6 -7 -8 -9 -9 -9 -10 -10 -10 -10 -9 -9 -9 -9 -9 -9 -9 -9 -9 -9 -9 -9 -8 -8 -8 -8 -9 -9 -9
1 0 -0 -1 -1 -2 -2 -3 -3 -4 -5 -5 -6 -7 -8 -8 -9 -9 -9 -10 -10 -10 -10 -10 -10 -10 -9 -9 -9 -9 -8 -9 -9 -9 -9 -9 -9 -9 -8 -8 -8 -9 -9
0 -1 -1 -1 -2 -2 -3 -3 -4 -5 -6 -7 -8 -8 -9 -9 -9 -10 -10 -10 -10 -10 -10 -10 -10 -10 -9 -9 -9 -9 -9 -8 -9 -9 -8 -8 -8 -9 -9 -8 -8 -9 -9
-1 -1 -1 -2 -2 -3 -4 -4 -5 -6 -6 -7 -8 -8 -9 -9 -10 -10 -10 -10 -9 -9 -10 -10 -10 -10 -9 -9 -9 -9 -9 -8 -8 -8 -8 -8 -8 -9 -9 -8 -8 -9 -9
-1 -2 -2 -3 -3 -4 -4 -5 -6 -6 -7 -8 -8 -8 -9 -9 -9 -10 -10 -10 -10 -10 -10 -10 -10 -9 -9 -9 -9 -9 -8 -8 -8 -8 -8 -8 -8 -8 -8 -8 -8 -8 -9
-2 -2 -3 -3 -4 -5 -5 -6 -7 -7 -8 -8 -9 -9 -9 -9 -9 -10 -10 -10 -10 -10 -10 -10 -9 -9 -9 -9 -9 -8 -8 -8 -8 -8 -8 -8 -8 -8 -8 -8 -8 -8 -8
-3 -3 -4 -4 -5 -5 -6 -7 -7 -8 -8 -9 -9 -10 -10 -10 -10 -10 -10 -10 -10 -10 -10 -9 -9 -9 -9 -8 -8 -8 -8 -8 -8 -8 -8 -8 -8 -8 -8 -8 -8 -8 -8
-3 -4 -4 -5 -5 -6 -7 -7 -8 -9 -9 -9 -9 -10 -10 -10 -10 -10 -10 -10 -10 -10 -10 -9 -9 -9 -8 -8 -8 -8 -8 -8 -8 -8 -8 -8 -8 -8 -8 -8 -8 -8 -8
-4 -4 -5 -5 -6 -7 -7 -8 -9 -9 -9 -10 -10 -10 -10 -10 -10 -10 -10 -10 -10 -9 -9 -9 -9 -8 -8 -8 -8 -8 -8 -8 -8 -8 -8 -8 -8 -8 -8 -8 -8 -8 -8
-4 -5 -5 -6 -7 -7 -8 -8 -9 -9 -10 -10 -10 -10 -10 -10 -10 -10 -10 -10 -9 -9 -9 -9 -8 -8 -8 -8 -8 -7 -7 -7 -7 -8 -8 -8 -8 -8 -8 -8 -8 -8 -8
-5 -5 -6 -7 -7 -8 -8 -9 -9 -10 -10 -10 -10 -10 -10 -10 -10 -10 -10 -9 -9 -9 -8 -8 -8 -8 -8 -7 -7 -7 -7 -7 -7 -7 -7 -7 -7 -7 -7 -8 -8 -7 -7
-5 -6 -6 -7 -8 -8 -9 -9 -9 -10 -10 -10 -10 -10 -10 -10 -10 -10 -9 -9 -9 -8 -8 -8 -8 -8 -7 -7 -7 -7 -7 -7 -7 -7 -7 -7 -7 -7 -7 -7 -7 -7 -7
Wind_Speed
12 13 14 13 14 14 14 14 14 13 14 13 13 11 9 8 6 5 4 4 2 1 2 3 3 3 3 3 3 4 5 6 12 10 6 7 9 11 14 18 21 20 22
14 15 14 14 14 15 15 14 14 14 13 12 11 10 9 7 5 4 3 2 2 2 3 3 4 3 3 4 4 5 5 6 9 14 9 7 10 11 12 12 15 20 19
15 15 14 14 14 15 16 15 14 13 12 11 10 9 8 7 5 4 3 1 2 3 3 4 4 4 5 4 5 5 5 8 7 11 12 8 9 11 12 13 13 10 18
14 14 14 14 15 16 15 14 13 13 12 11 10 9 7 6 5 4 3 3 4 4 4 5 5 5 6 6 5 6 7 7 8 9 12 11 10 10 10 10 12 8 11
13 14 14 14 15 16 15 14 13 12 12 11 10 8 6 4 4 5 4 5 5 6 6 6 5 7 10 9 8 6 7 7 8 10 13 13 12 10 10 9 13 12 11
13 14 15 16 16 16 15 14 14 12 11 9 8 7 5 4 6 4 4 4 6 7 7 7 6 7 11 15 17 17 15 12 10 11 13 14 14 12 10 11 13 16 16
14 15 15 17 17 16 15 14 13 11 9 8 6 5 4 5 4 3 6 5 6 7 8 7 6 7 11 6 12 17 16 21 22 16 15 15 14 12 11 13 14 16 17
14 15 15 16 16 15 14 13 11 8 7 6 5 4 3 3 3 3 7 6 7 7 7 7 6 6 8 11 8 8 8 11 17 14 12 13 13 11 13 16 16 14 14
15 15 15 15 15 14 13 11 8 7 6 5 3 2 2 2 2 3 7 4 6 7 7 7 9 8 16 19 11 9 11 11 18 22 24 24 28 28 21 12 10 12 16
15 14 14 14 14 13 11 9 7 6 5 4 2 1 1 1 1 5 8 3 5 6 6 7 14 16 19 20 12 11 14 12 12 14 16 19 16 17 22 11 8 12 14
14 15 14 13 12 11 9 7 6 5 3 2 1 1 1 1 3 6 9 4 4 5 6 6 8 19 21 23 21 12 16 17 10 10 11 11 10 9 9 9 9 10 13
14 15 13 12 10 9 8 6 5 4 3 3 3 3 3 3 5 7 11 12 12 7 7 6 9 21 23 24 18 18 22 19 8 9 10 10 10 11 11 12 12 12 13
14 14 12 11 9 8 7 6 4 4 4 4 4 3 4 4 6 11 12 16 18 10 9 16 20 23 22 14 16 20 16 8 8 9 10 11 9 10 11 12 12 12 13
14 11 10 9 8 7 6 5 4 4 5 4 4 4 4 5 5 5 5 8 12 11 9 14 19 20 15 14 13 11 8 8 10 9 10 11 10 10 11 11 12 12 12
12 9 8 7 6 6 5 4 5 4 4 3 2 3 4 5 8 15 12 8 8 10 11 6 6 7 6 7 7 7 7 8 9 9 11 11 12 12 12 10 10 11 12
10 8 6 5 5 5 4 3 3 2 2 3 3 5 5 8 14 16 17 17 18 18 11 6 7 7 8 9 10 11 10 10 10 10 11 11 12 12 13 12 11 11 13
9 7 6 5 5 5 4 4 4 4 5 6 6 8 9 12 15 16 16 16 16 14 6 6 7 8 9 9 9 10 11 11 10 10 11 11 11 12 12 12 12 12 12
8 8 7 5 5 4 4 4 3 3 4 4 6 10 11 14 16 15 14 12 8 8 5 7 8 8 9 9 10 10 11 11 10 10 11 11 11 11 12 12 12 13 13
7 5 5 5 4 4 3 3 3 4 4 4 4 6 11 13 14 14 12 5 7 7 7 8 8 9 9 10 10 10 11 12 12 12 12 12 11 11 12 12 13 18 16
6 8 6 4 4 4 3 3 3 4 4 4 5 5 6 7 6 7 6 5 6 7 8 9 9 9 10 10 10 10 11 12 12 11 12 12 11 11 12 14 13 13 13
5 5 6 5 4 3 3 3 3 4 4 5 5 8 12 6 6 7 7 6 6 8 9 9 10 10 9 9 10 11 12 12 12 12 12 12 12 12 12 12 13 13 13
4 4 3 3 3 3 3 3 3 4 5 5 5 8 13 7 6 6 7 8 7 8 8 9 10 10 9 10 10 11 12 13 13 12 12 12 12 12 12 12 12 12 12
4 3 3 3 2 4 4 3 3 4 5 5 6 7 7 7 7 7 8 8 9 9 8 8 10 11 9 11 11 11 12 13 13 13 14 13 12 11 11 11 12 13 12
4 3 3 2 2 3 3 4 4 4 5 6 6 6 7 7 8 9 9 9 10 10 10 10 10 13 16 15 14 15 15 16 16 13 14 12 12 10 10 10 11 12 11
3 3 3 2 3 3 3 4 4 5 6 7 7 7 7 8 9 9 9 9 10 11 12 13 12 13 15 19 19 18 21 24 22 14 8 8 9 10 10 10 10 11 11
2 2 2 2 3 3 3 4 5 5 5 6 6 7 8 8 9 9 9 10 10 11 12 12 14 18 21 19 20 22 24 23 21 18 10 7 8 8 9 8 10 9 10
Wind_Direction
132 128 129 130 133 136 138 138 139 138 136 133 131 129 129 131 131 130 136 136 166 244 241 234 253 263 269 275 280 277 270 269 283 289 283 294 298 296 297 295 295 292 292
122 123 125 128 131 133 133 133 134 132 129 127 126 124 125 122 119 122 127 139 215 256 271 276 278 283 282 277 273 271 273 274 284 295 297 296 292 292 293 291 298 298 296
120 123 127 131 132 132 131 130 129 125 120 117 114 115 113 108 99 86 72 24 307 283 273 267 270 277 278 274 277 280 282 290 286 295 299 297 294 294 294 293 292 292 297
120 126 131 133 132 129 126 124 120 117 113 108 105 104 104 103 97 71 36 348 316 301 289 272 261 256 259 264 276 273 279 282 284 290 295 296 293 288 289 297 300 289 295
123 128 129 127 124 121 118 115 112 109 106 104 103 100 97 102 87 60 18 342 330 316 304 290 278 281 288 289 287 275 281 282 287 292 294 296 296 299 298 298 302 302 293
125 126 124 123 119 116 113 110 106 103 101 101 104 107 107 102 91 47 355 333 322 312 303 297 296 297 298 302 304 304 302 300 300 296 296 296 297 296 295 298 300 302 300
121 122 121 119 116 113 112 108 106 105 104 105 108 114 113 118 108 28 340 331 307 294 290 291 296 298 308 300 296 299 299 299 299 297 295 294 294 294 292 294 292 291 292
117 117 115 114 111 109 108 105 104 106 108 109 107 98 97 141 123 16 340 336 307 298 298 297 295 292 293 299 287 289 283 291 292 293 286 287 291 290 285 289 291 292 289
114 113 113 112 110 108 106 104 105 105 101 100 98 85 61 107 118 2 343 325 309 310 314 319 319 303 304 309 311 302 297 293 300 299 299 300 300 301 303 303 301 301 299
111 110 109 108 108 106 105 102 98 100 104 103 92 46 32 48 359 343 336 322 313 312 312 312 314 312 310 314 312 303 303 301 298 300 301 300 297 297 303 301 299 299 298
110 106 102 100 101 101 99 96 94 90 86 80 61 354 5 19 352 329 326 322 296 298 300 299 301 311 312 312 311 304 301 305 302 302 302 299 298 297 298 293 291 291 292
105 101 97 94 95 96 94 87 84 76 57 42 26 15 14 16 349 323 324 328 327 319 309 302 305 313 313 313 313 308 308 313 307 303 300 300 301 302 302 300 294 285 275
102 99 96 92 89 90 89 80 66 60 53 36 23 14 357 359 344 344 341 332 327 323 311 315 316 316 316 313 310 313 318 314 303 300 300 299 296 295 299 300 296 289 283
100 98 96 95 89 81 78 67 57 57 49 33 21 8 354 345 338 343 331 319 319 316 308 310 316 315 315 316 318 318 312 302 306 302 302 300 300 301 301 301 303 306 304
96 93 89 86 89 82 77 73 70 77 77 41 7 356 344 327 322 328 328 319 315 308 314 310 309 310 317 318 314 309 308 309 309 305 303 303 304 304 302 303 300 303 300
97 89 84 81 74 68 64 59 73 72 35 356 338 331 324 324 327 330 326 324 324 323 327 322 317 319 318 317 316 315 313 311 308 306 303 300 301 301 303 303 301 300 299
93 90 82 76 69 60 51 45 21 357 347 337 336 334 335 337 336 331 329 330 332 336 339 320 314 312 311 310 309 308 307 306 305 302 300 299 300 300 300 301 302 301 300
82 79 80 72 64 58 49 35 22 5 346 340 345 344 346 345 339 336 339 342 334 333 318 310 309 308 308 308 306 305 304 304 304 302 300 299 298 298 299 299 300 300 302
77 70 70 69 62 53 39 25 12 360 345 334 334 341 346 341 340 340 345 335 317 316 314 310 307 306 304 303 302 301 300 300 300 301 299 298 298 298 297 298 299 302 304
75 73 68 63 56 41 27 19 9 355 342 338 333 324 324 332 330 327 328 312 310 309 310 308 306 303 302 301 300 299 300 299 300 299 297 297 296 296 296 298 300 302 302
88 73 61 60 52 33 19 11 357 345 336 329 321 322 334 335 319 313 315 314 310 309 308 306 304 302 300 298 298 297 296 296 296 295 295 296 297 299 299 298 298 299 301
82 78 66 59 40 25 2 346 341 336 328 323 318 323 332 329 310 309 310 309 305 303 302 301 300 297 296 296 296 296 295 294 294 294 295 296 297 297 297 298 301 305 309
74 68 59 49 27 0 2 353 340 328 319 315 318 321 323 320 317 312 311 312 310 308 305 302 300 299 298 297 293 290 289 290 291 292 294 295 296 297 300 305 309 315 319
67 59 45 29 13 357 343 332 325 322 320 315 315 316 316 315 314 313 312 311 310 309 307 305 300 298 299 302 301 298 292 291 293 292 292 298 303 307 311 315 317 320 323
61 44 28 13 355 341 329 322 318 318 319 318 316 316 314 313 311 310 310 310 309 309 308 308 305 303 303 304 304 303 303 308 314 316 309 310 312 313 317 318 321 324 325
55 28 7 350 337 327 319 312 307 307 304 306 307 306 307 307 307 308 309 310 312 312 310 309 306 306 307 307 305 309 316 323 330 336 335 319 320 319 323 322 324 328 329
Height
1416 1419 1424 1428 1432 1437 1441 1446 1452 1457 1462 1468 1473 1477 1480 1483 1485 1486 1486 1485 1485 1484 1483 1482 1480 1478 1477 1475 1472 1470 1467 1464 1457 1450 1449 1446 1443 1439 1434 1431 1426 1422 1417
1412 1416 1421 1425 1430 1434 1439 1445 1451 1456 1462 1467 1472 1476 1479 1481 1482 1482 1482 1482 1481 1480 1479 1477 1476 1474 1471 1469 1466 1463 1461 1458 1453 1445 1441 1439 1435 1432 1427 1423 1419 1415 1410
1409 1414 1419 1423 1428 1433 1438 1445 1451 1456 1462 1467 1471 1474 1477 1478 1479 1479 1479 1479 1478 1476 1475 1473 1471 1468 1466 1463 1460 1457 1454 1451 1447 1442 1435 1432 1428 1425 1420 1415 1411 1407 1402
1408 1413 1418 1423 1427 1432 1438 1445 1451 1457 1462 1466 1470 1473 1475 1476 1476 1476 1476 1475 1474 1472 1470 1468 1466 1463 1460 1457 1454 1451 1448 1445 1441 1436 1430 1425 1421 1418 1414 1409 1402 1398 1393
1409 1413 1417 1422 1427 1433 1439 1446 1452 1458 1462 1466 1470 1472 1473 1474 1474 1473 1472 1471 1470 1468 1466 1463 1461 1458 1455 1453 1450 1446 1443 1439 1435 1430 1425 1420 1415 1412 1408 1403 1397 1390 1384
1410 1414 1418 1422 1428 1434 1441 1448 1453 1459 1463 1466 1469 1470 1471 1471 1471 1470 1469 1467 1465 1463 1460 1458 1455 1453 1450 1447 1445 1442 1439 1435 1430 1425 1420 1415 1410 1406 1402 1397 1391 1384 1375
1412 1415 1419 1424 1430 1437 1444 1450 1455 1460 1463 1466 1467 1468 1468 1468 1467 1466 1464 1462 1460 1458 1455 1452 1449 1447 1444 1441 1438 1435 1432 1429 1426 1422 1415 1409 1405 1400 1396 1390 1385 1378 1371
1414 1418 1422 1428 1434 1440 1447 1452 1457 1460 1463 1465 1466 1466 1466 1465 1464 1462 1460 1458 1455 1453 1450 1447 1444 1441 1439 1436 1432 1429 1425 1422 1419 1414 1409 1404 1399 1394 1390 1385 1379 1372 1364
1417 1422 1427 1433 1438 1444 1449 1454 1457 1460 1462 1463 1464 1464 1463 1462 1460 1458 1455 1452 1450 1447 1445 1442 1440 1436 1433 1431 1427 1422 1417 1413 1410 1407 1402 1398 1393 1388 1385 1379 1372 1366 1357
1422 1426 1432 1438 1443 1448 1452 1455 1458 1460 1461 1462 1462 1461 1460 1458 1456 1454 1451 1448 1445 1442 1439 1437 1434 1431 1428 1425 1421 1416 1411 1406 1402 1397 1393 1389 1385 1381 1377 1373 1367 1361 1353
1427 1432 1437 1442 1447 1450 1454 1456 1458 1459 1460 1460 1459 1459 1457 1455 1453 1451 1448 1444 1441 1437 1434 1431 1428 1425 1423 1420 1416 1411 1406 1402 1397 1392 1387 1382 1378 1374 1370 1366 1361 1356 1349
1433 1437 1442 1446 1449 1452 1455 1456 1457 1458 1458 1458 1457 1456 1454 1452 1450 1447 1444 1442 1438 1434 1430 1426 1423 1420 1417 1414 1410 1405 1402 1397 1392 1387 1382 1377 1372 1367 1362 1358 1353 1348 1342
1438 1442 1446 1449 1451 1454 1455 1456 1456 1456 1456 1455 1454 1452 1450 1448 1446 1443 1440 1437 1433 1430 1426 1422 1419 1415 1412 1408 1404 1401 1397 1392 1387 1382 1377 1372 1367 1361 1356 1350 1345 1339 1334
1442 1445 1448 1451 1453 1454 1455 1455 1455 1455 1454 1452 1451 1449 1447 1444 1441 1438 1435 1432 1428 1425 1421 1417 1414 1410 1407 1403 1400 1396 1392 1388 1383 1378 1372 1367 1361 1356 1350 1345 1338 1332 1324
1446 1448 1450 1452 1453 1454 1455 1454 1454 1453 1452 1450 1448 1446 1443 1440 1438 1435 1432 1427 1424 1421 1417 1413 1409 1405 1402 1398 1395 1391 1387 1383 1378 1373 1368 1362 1356 1351 1345 1340 1333 1327 1320
1448 1450 1452 1453 1454 1454 1454 1453 1452 1451 1450 1447 1445 1443 1440 1438 1434 1431 1428 1424 1421 1417 1414 1409 1406 1402 1398 1394 1390 1386 1383 1378 1374 1369 1363 1358 1352 1346 1340 1335 1329 1323 1316
1451 1452 1453 1453 1454 1453 1453 1452 1451 1450 1448 1445 1443 1441 1438 1435 1432 1428 1425 1421 1418 1414 1411 1407 1403 1400 1396 1392 1388 1383 1379 1375 1370 1365 1360 1354 1349 1342 1336 1330 1324 1318 1312
1452 1453 1453 1454 1453 1453 1452 1451 1449 1447 1445 1443 1441 1439 1436 1432 1429 1425 1422 1418 1415 1412 1408 1404 1401 1397 1393 1389 1385 1380 1375 1371 1366 1361 1356 1350 1345 1339 1332 1326 1320 1314 1308
1453 1454 1454 1453 1453 1452 1451 1449 1447 1445 1443 1441 1438 1436 1433 1429 1426 1423 1419 1416 1412 1409 1406 1402 1399 1395 1391 1387 1382 1378 1373 1368 1363 1357 1352 1347 1341 1335 1329 1323 1317 1311 1305
1454 1454 1454 1453 1452 1451 1449 1447 1446 1443 1441 1439 1436 1433 1430 1426 1423 1420 1417 1414 1411 1407 1403 1400 1396 1392 1388 1384 1379 1375 1370 1365 1359 1354 1348 1343 1337 1331 1325 1320 1314 1308 1302
1454 1454 1453 1452 1451 1449 1448 1446 1444 1442 1439 1436 1434 1431 1428 1425 1421 1418 1415 1412 1408 1405 1401 1397 1393 1390 1386 1381 1377 1372 1367 1362 1356 1351 1345 1339 1334 1328 1322 1317 1311 1306 1299
1454 1453 1452 1451 1450 1448 1446 1444 1442 1440 1437 1434 1431 1429 1426 1423 1419 1416 1413 1410 1406 1403 1399 1395 1391 1387 1383 1379 1374 1368 1363 1358 1353 1347 1341 1336 1330 1325 1320 1314 1309 1304 1298
1453 1452 1451 1450 1448 1447 1445 1442 1440 1438 1435 1432 1429 1426 1423 1420 1417 1414 1411 1407 1404 1400 1397 1393 1389 1385 1381 1376 1372 1367 1361 1356 1350 1345 1339 1333 1328 1323 1318 1313 1308 1302 1297
1452 1451 1450 1448 1447 1445 1443 1440 1438 1435 1433 1430 1427 1424 1421 1418 1415 1412 1409 1405 1402 1398 1394 1390 1387 1382 1378 1374 1369 1365 1360 1354 1348 1343 1338 1332 1327 1322 1317 1312 1307 1302 1296
1451 1450 1448 1447 1445 1443 1440 1438 1436 1433 1430 1427 1425 1422 1419 1416 1413 1410 1407 1403 1400 1396 1392 1389 1385 1380 1376 1372 1367 1363 1358 1353 1348 1343 1337 1332 1327 1322 1317 1312 1307 1301 1296
1450 1448 1446 1445 1442 1440 1438 1436 1433 1430 1428 1425 1422 1420 1417 1414 1411 1408 1405 1401 1398 1394 1390 1387 1383 1378 1374 1370 1365 1361 1356 1352 1347 1342 1337 1332 1326 1321 1317 1312 1307 1302 1297